User: anonymous   Login
Location: Dayton
(39.7590°N, 84.1920°W)
Time: 15:13:05
(UTC-05:00)
Language:

Cosmos 1939 Rocket - Orbit

View from above orbital plane
View from above orbital plane
View from above satellite
View from above satellite

Ground track
Ground track

The orbit data is extracted from the following two-line orbital elements,

1 19046U 88032B   15063.50523091  .00003170  00000-0  25107-3 0  9990
2 19046 097.6216 118.0868 0040502 294.3774 065.3225 15.00663139447228
Epoch (UTC): 04 March 2015 12:07:31
Eccentricity: 0.0040502
inclination: 97.6216°
perigee height: 537 km
apogee height: 593 km
right ascension of ascending node: 118.0868°
argument of perigee: 294.3774°
revolutions per day: 15.00663139
mean anomaly at epoch: 65.3225°
orbit number at epoch: 44722

The dashed part of the orbit path shows where the satellite is in the earth's shadow,  

DLR